sat.trackr.live / text

‹ back to catalog

STARLINK-37343

NORAD 69159 · 2026-111M

PAYLOAD ACTIVE UNKNOWN

§ Identity

Operator
Country
US
Launch date
2026-05-21
Launch site
AFETR
Launch vehicle
Mass (kg)
RCS (m²)

Purposes: comms

External: N2YO · Heavens-Above · Gunter

§ Orbital elements

Epoch: 2026-09-20T00:27:35.588160Z

Period
93.85 min
Inclination
53.1580°
Eccentricity
0.0000926
Mean motion
15.34418868 rev/d
Perigee alt
462.0 km
Apogee alt
463.3 km
Semi-major
6,840.8 km
B*
3.2577e-4
RAAN
68.0832°
Arg perigee
81.2556°
Mean anomaly
278.8551°
Rev number
1,882

§ Raw data

STARLINK-373431 69159U 26111M   26263.01916190  .00010653  00000+0  32577-3 0  99982 69159  53.1580  68.0832 0000926  81.2556 278.8551 15.34418868 18828

JSON: /api/v1/satellites/69159 · /tle

For live sub-satellite position, see the globe view (requires WebGL).

§ Visibility from observer

Set your observer location to see the next 7 days of passes ≥ 10°. The values pass through the URL so the page stays shareable.

No JS? Fill the form by hand. The geolocation button needs JavaScript.